TimeCDT,TemperatureF,Dew PointF,Humidity,Sea Level PressureIn,VisibilityMPH,Wind Direction,Wind SpeedMPH,Gust SpeedMPH,PrecipitationIn,Events,Conditions,WindDirDegrees,DateUTC
12:53 AM,72.0,66.0,81,29.93,10.0,SSE,6.9,-,N/A,,Clear,160,2013-10-16 05:53:00
1:53 AM,72.0,66.0,81,29.94,10.0,South,6.9,-,N/A,,Mostly Cloudy,170,2013-10-16 06:53:00
2:53 AM,71.1,66.0,84,29.92,10.0,South,6.9,-,N/A,,Mostly Cloudy,170,2013-10-16 07:53:00
3:53 AM,71.1,66.9,87,29.92,10.0,South,4.6,-,N/A,,Overcast,190,2013-10-16 08:53:00
4:53 AM,71.1,66.9,87,29.92,10.0,South,8.1,-,N/A,,Overcast,180,2013-10-16 09:53:00
5:53 AM,71.1,68.0,90,29.93,9.0,South,5.8,-,N/A,,Overcast,180,2013-10-16 10:53:00
6:53 AM,70.0,68.0,93,29.95,8.0,South,5.8,-,N/A,,Overcast,180,2013-10-16 11:53:00
7:53 AM,71.1,68.0,90,29.96,7.0,South,5.8,-,N/A,,Overcast,180,2013-10-16 12:53:00
8:53 AM,73.0,68.0,84,29.97,10.0,South,8.1,-,N/A,,Mostly Cloudy,170,2013-10-16 13:53:00
9:53 AM,75.0,69.1,82,29.97,10.0,South,9.2,-,N/A,,Mostly Cloudy,190,2013-10-16 14:53:00
10:53 AM,75.0,69.1,82,29.97,10.0,South,8.1,-,N/A,,Overcast,180,2013-10-16 15:53:00
11:44 AM,75.2,69.8,83,29.99,7.0,WNW,9.2,-,0.00,Rain,Light Rain,290,2013-10-16 16:44:00
11:48 AM,73.4,69.8,88,29.98,0.8,West,11.5,17.3,0.10,Rain,Heavy Rain,280,2013-10-16 16:48:00
11:53 AM,72.0,70.0,93,29.96,0.8,West,11.5,17.3,0.12,Rain,Heavy Rain,260,2013-10-16 16:53:00
12:10 PM,71.6,69.8,94,29.98,1.0,WSW,9.2,-,0.10,Rain,Rain,250,2013-10-16 17:10:00
12:16 PM,71.6,69.8,94,29.98,3.0,West,8.1,-,0.10,Rain,Light Rain,260,2013-10-16 17:16:00
12:53 PM,73.0,70.0,90,29.94,1.5,NW,8.1,-,0.12,Rain,Rain,310,2013-10-16 17:53:00
1:01 PM,73.4,69.8,88,29.96,2.0,WNW,6.9,-,0.00,Rain,Light Rain,290,2013-10-16 18:01:00
1:03 PM,73.4,69.8,88,29.96,3.0,WNW,6.9,-,0.00,Rain,Light Rain,290,2013-10-16 18:03:00
1:18 PM,73.4,69.8,88,29.96,1.8,WNW,8.1,-,0.03,Rain,Heavy Rain,300,2013-10-16 18:18:00
1:33 PM,73.4,69.8,88,29.95,1.0,WNW,5.8,-,0.07,Rain,Heavy Rain,290,2013-10-16 18:33:00
1:45 PM,71.6,69.8,94,29.95,3.0,WNW,4.6,-,0.08,Rain,Light Rain,290,2013-10-16 18:45:00
1:53 PM,73.0,70.0,90,29.92,2.0,WNW,5.8,-,0.09,Rain,Light Rain,290,2013-10-16 18:53:00
2:00 PM,73.4,69.8,88,29.94,5.0,NW,3.5,-,0.00,Rain,Light Rain,320,2013-10-16 19:00:00
2:42 PM,73.4,69.8,88,29.92,10.0,Calm,Calm,-,0.00,Rain,Light Rain,0,2013-10-16 19:42:00
2:53 PM,73.0,70.0,90,29.90,10.0,Calm,Calm,-,0.00,,Overcast,0,2013-10-16 19:53:00
3:19 PM,73.4,69.8,88,29.93,10.0,WNW,3.5,-,N/A,,Overcast,300,2013-10-16 20:19:00
3:53 PM,73.9,70.0,87,29.91,10.0,Calm,Calm,-,N/A,,Mostly Cloudy,0,2013-10-16 20:53:00
3:55 PM,73.4,69.8,88,29.93,10.0,Calm,Calm,-,N/A,,Mostly Cloudy,0,2013-10-16 20:55:00
4:07 PM,73.4,69.8,88,29.93,10.0,NNW,3.5,-,N/A,,Overcast,330,2013-10-16 21:07:00
4:17 PM,73.4,69.8,88,29.93,10.0,Calm,Calm,-,N/A,,Overcast,0,2013-10-16 21:17:00
4:31 PM,73.4,69.8,88,29.93,10.0,North,3.5,-,N/A,,Overcast,360,2013-10-16 21:31:00
4:53 PM,71.1,68.0,90,29.91,10.0,WNW,9.2,-,N/A,,Overcast,300,2013-10-16 21:53:00
5:05 PM,69.8,66.2,88,29.94,2.5,NW,8.1,-,0.00,Rain,Light Rain,320,2013-10-16 22:05:00
5:11 PM,66.2,66.2,100,29.94,0.8,NW,8.1,-,0.00,Rain,Light Rain,320,2013-10-16 22:11:00
5:53 PM,66.9,64.9,93,29.92,2.0,Variable,4.6,-,0.01,Rain,Light Rain,0,2013-10-16 22:53:00
6:01 PM,66.2,64.4,94,29.94,6.0,Variable,3.5,-,0.00,,Overcast,0,2013-10-16 23:01:00
6:35 PM,64.4,64.4,100,29.95,2.5,NNW,3.5,-,0.00,Rain,Light Rain,330,2013-10-16 23:35:00
6:45 PM,64.4,64.4,100,29.95,3.0,NNW,3.5,-,0.00,Rain,Light Rain,330,2013-10-16 23:45:00
6:53 PM,66.0,64.0,93,29.93,4.0,Calm,Calm,-,0.00,,Overcast,0,2013-10-16 23:53:00
7:53 PM,64.9,63.0,93,29.95,9.0,NNW,4.6,-,N/A,,Overcast,340,2013-10-17 00:53:00
8:53 PM,64.0,62.1,93,29.96,10.0,NNW,4.6,-,0.00,,Overcast,330,2013-10-17 01:53:00
9:53 PM,64.0,62.1,93,29.96,10.0,NNW,3.5,-,0.00,,Overcast,330,2013-10-17 02:53:00
10:53 PM,64.0,62.1,93,29.96,10.0,Calm,Calm,-,0.00,,Overcast,0,2013-10-17 03:53:00
11:53 PM,64.0,62.1,93,29.95,4.0,Calm,Calm,-,0.00,Rain,Light Rain,0,2013-10-17 04:53:00